This demonstration page uses our WeatherBlox Daily Observations layout. Learn more.

Left ArrowRight Arrow

39.08367, -84.50855

Hourly Observations for April 17, 2015

Temp ( °F °C ) Dew Point ( °F °C ) Humidity (%) Winds ( mph kmh ) Pressure ( in mb ) Visibility ( mi km ) Precip ( " mm )
12:09 am 00:09 Partly Cloudy with Mist and Fog 60 15.6 60 15.6 100 100 Calm 30.06 1018 0.75 1.207005 0 0.0254
12:23 am 00:23 Mostly Cloudy with Fog 60 15.6 60 15.6 100 100 Calm 30.06 1018 0.5 0.80467 0 0.0254
12:35 am 00:35 Mostly Cloudy with Mist and Fog 60 15.6 60 15.6 100 100 Calm 30.06 1018 1 1.60934 0 0.0254
12:42 am 00:42 Cloudy with Fog 60 15.6 60 15.6 100 100 SSE 3 6 30.06 1018 0.5 0.80467 0 0.0254
12:51 am 00:51 Cloudy with Mist and Fog 61 16 61 16 100 100 Calm 30.06 1018 1.25 2.011675 0 0.0254
12:53 am 00:53 Mostly Cloudy with Mist and Fog 60 15.6 60 15.6 100 100 Calm 30.09 1019 1.25 2.011675 0 0.0254
1:07 am 01:07 Cloudy with Mist and Fog 60 15.6 60 15.6 100 100 Calm 30.06 1018 2 3.21868 0 0
1:15 am 01:15 Cloudy with Light Rain 60 15.6 60 15.6 100 100 Calm 30.06 1018 5 8.0467 0 0.0254
1:53 am 01:53 Cloudy 60 15.6 60 15.6 100 100 Calm 30.08 1019 7 11.26538 0 0.0254
2:12 am 02:12 Cloudy with Heavy Rain 61 16 61 16 100 100 Calm 30.06 1018 1.75 2.816345 0 0
2:25 am 02:25 Cloudy with Light Rain 60 15.6 60 15.6 100 100 Calm 30.06 1018 3 4.82802 0.07 1.778
2:35 am 02:35 Cloudy with Light Rain 60 15.6 60 15.6 100 100 Calm 30.06 1018 1.5 2.41401 0.08 2.032
2:53 am 02:53 Cloudy with Light Rain 60 15.6 60 15.6 100 100 Calm 30.07 1018 1.25 2.011675 0.08 2.032
3:04 am 03:04 Cloudy with Mist and Fog 61 16 61 16 100 100 S 3 6 30.06 1018 3 4.82802 0 0
3:53 am 03:53 Cloudy with Light Rain 60 15.6 60 15.6 100 100 Calm 30.07 1018 7 11.26538 0.01 0.254
4:42 am 04:42 Cloudy 61 16.1 61 16.1 100 100 Calm 30.06 1018 10 16.0934 0 0.0254
4:53 am 04:53 Mostly Cloudy 62 16.7 61 16.1 96 96 WNW 3 6 30.08 1019 10 16.0934 0 0.0254
5:12 am 05:12 Mostly Cloudy 63 17 61 16 94 94 SSW 3 6 30.06 1018 10 16.0934 0 0
5:26 am 05:26 Cloudy 61 16 61 16 100 100 Calm 30.06 1018 9 14.48406 0 0
5:53 am 05:53 Cloudy 60 15.6 60 15.6 100 100 Calm 30.08 1019 7 11.26538 0 0
6:01 am 06:01 Mostly Cloudy with Mist and Fog 60 15.6 60 15.6 100 100 SSE 3 6 30.06 1018 2.5 4.02335 0 0
6:05 am 06:05 Partly Cloudy with Mist and Fog 59 15 59 15 100 100 Calm 30.09 1019 1.75 2.816345 0 0
6:12 am 06:12 Mostly Cloudy with Fog 57 14 57 14 100 100 Calm 30.09 1019 0.25 0.402335 0 0
6:25 am 06:25 Mostly Cloudy with Mist and Fog 59 15 59 15 100 100 Calm 30.09 1019 1 1.60934 0 0
6:40 am 06:40 Cloudy with Mist and Fog 58 14.4 58 14.4 100 100 Calm 30.09 1019 3 4.82802 0 0
6:53 am 06:53 Mostly Cloudy with Mist and Fog 59 15 59 15 100 100 NW 3 6 30.09 1019 6 9.65604 0 0
7:28 am 07:28 Partly Cloudy with Mist and Fog 59 15 57 14 94 94 Calm 30.12 1020 5 8.0467 0 0
7:53 am 07:53 Sunny with Mist and Fog 59 15 58 14.4 96 96 W 3 6 30.11 1020 5 8.0467 0 0
8:53 am 08:53 Sunny 62 16.7 59 15 90 90 Calm 30.11 1020 7 11.26538 0 0
9:53 am 09:53 Sunny 65 18.3 54 12.2 68 68 VRB 5 7 30.12 1020 8 12.87472 0 0
10:53 am 10:53 Sunny 66 18.9 54 12.2 65 65 VRB 6 9 30.13 1020 10 16.0934 0 0
11:53 am 11:53 Sunny 67 19.4 52 11.1 59 59 NE 5 7 30.13 1020 10 16.0934 0 0
12:53 pm 12:53 Sunny 68 20 53 11.7 59 59 VRB 6 9 30.11 1020 10 16.0934 0 0
1:53 pm 13:53 Sunny 70 21.1 52 11.1 53 53 S 3 6 30.08 1019 10 16.0934 0 0
2:53 pm 14:53 Sunny 72 22.2 50 10 46 46 VRB 3 6 30.06 1018 10 16.0934 0 0
3:53 pm 15:53 Sunny 73 22.8 48 8.9 41 41 Calm 30.03 1017 10 16.0934 0 0
4:53 pm 16:53 Sunny 74 23.3 48 8.9 40 40 Calm 30.02 1017 10 16.0934 0 0
5:53 pm 17:53 Sunny 74 23.3 48 8.9 40 40 E 5 7 30.01 1016 10 16.0934 0 0
6:53 pm 18:53 Sunny 74 23.3 47 8.3 38 38 Calm 30 1016 9 14.48406 0 0
7:53 pm 19:53 Sunny 70 21.1 46 7.8 42 42 NNE 3 6 30 1016 10 16.0934 0 0
8:53 pm 20:53 Clear 63 17.2 53 11.7 70 70 Calm 30.01 1016 10 16.0934 0 0
9:53 pm 21:53 Clear 59 15 51 10.6 75 75 Calm 30.04 1017 10 16.0934 0 0
10:53 pm 22:53 Clear 57 13.9 48 8.9 72 72 Calm 30.04 1017 10 16.0934 0 0
11:53 pm 23:53 Clear 53 11.7 51 10.6 93 93 Calm 30.04 1017 10 16.0934 0 0

Powered by AerisWeather